Regional Weather Roundup
Issued by NWS Bismarck, ND

Home | Current Version | Previous Version | Text Only | Print | Product List | Glossary Off
Versions: 1 2 3 4 5 6 7 8 9 10 11 12 13 14 15 16 17 18 19 20 21 22 23 24 25 26 27 28 29 30 31 32 33 34 35 36 37 38 39 40 41 42 43 44 45 46 47 48 49 50

000
ASUS43 KBIS 080610
RWRBIS

NWR BROADCAST TEXT
NATIONAL WEATHER SERVICE BISMARCK ND
1200 AM CST MON FEB 08 2016

NOTE: "FAIR" INDICATES FEW OR NO CLOUDS BELOW 12,000 FEET WITH NO
SIGNIFICANT WEATHER AND/OR OBSTRUCTIONS TO VISIBILITY.


CITY           SKY/WX    TMP DP  RH WIND       PRES   REMARKS
WILLISTON      CLEAR     27  19  72 NW21G28   30.30S WCI  13
MINOT          FLURRIES  29  16  58 NW23G39   30.18R WCI  15
MINOT AFB      PTCLDY    26  20  76 NW24G31   30.17R WCI  11
BISMARCK       CLEAR     30  17  58 NW28G36   30.17R WCI  15
DICKINSON      CLEAR     25  14  63 NW17      30.25R WCI  12
GARRISON         N/A     25  18  74 NW26G37   30.19R WCI   9
HETTINGER ARPT CLEAR     26  15  63 NW18G28   30.26R WCI  13
JAMESTOWN      CLOUDY    22  15  75 N29G38    30.05S WCI   4
BEACH          FAIR      23  16  74 NW14      30.35R WCI  11
CARRINGTON     FLURRIES  23  19  86 N21G45    30.09R WCI   8
HAZEN          FAIR      27  18  69 NW20G26   30.24R WCI  13
LINTON         FAIR      27  18  69 NW26G32   30.16R WCI  11
MANDAN         MOCLDY    25  18  74 NW24G33   30.17S WCI   9
OAKES          CLOUDY    21  16  79 N30G38    30.04R WCI   3
RUGBY          CLOUDY    23  18  80 NW22G33   30.11S WCI   8
STANLEY        FAIR      23  19  86 NW20G28   30.24R WCI   8
TIOGA          FAIR      23  19  86 NW16G23   30.30R WCI  10
WATFORD CITY   FAIR      25  19  80 NW13      30.30S WCI  13
$$

CITY           SKY/WX    TMP DP  RH WIND       PRES   REMARKS
GRAND FORKS    LGT SNOW  15   9  76 N28G36    30.05S BLWGSNOWWCI  -5
GRAND FORKS AF FLURRIES  14   9  79 N20G31    30.06S WCI  -3
DEVILS LAKE    FLURRIES  19  14  81 N24G31    30.08R WCI   2
FARGO          SNOW      14  10  84 N31G39    30.04R VSB 1/2 WCI  -7
CAVALIER       LGT SNOW  14  10  85 N26G43    30.08R VSB 1   WCI  -6
GRAFTON        LGT SNOW  14  12  92 N29G40    30.08F WCI  -7
GWINNER        CLOUDY    23  16  74 N25G37    30.03F WCI   7
LANGDON        LGT SNOW  16  12  86 N26G38    30.04R WCI  -3
ROLLA          FLURRIES  18  14  86 N28G36    30.08S WCI  -1
WALHALLA       LGT SNOW  14  14 100 N22G33    30.10R WCI  -4
$$

CITY           SKY/WX    TMP DP  RH WIND       PRES   REMARKS
ABERDEEN       CLOUDY    28  18  66 N21G33    30.06S WCI  15
MOBRIDGE       PTCLDY    30  17  58 NW28G45   30.12R WCI  15
BUFFALO          N/A     27  14  58 NW28      30.22S WCI  11
RAPID CITY     CLEAR     30   9  41 NW30G41   30.28S WCI  15
GLASGOW        CLEAR     23  16  74 W7        30.41R WCI  15
SIDNEY         CLEAR     27  16  63 NW15      30.34S WCI  15
WOLF POINT     CLEAR     29  16  58 NW15      30.39S WCI  18
GLENDIVE       CLEAR     25  16  68 W10       30.38S WCI  15
MILES CITY     CLEAR     26  15  63 W12       30.41S WCI  16
BAKER          CLEAR     25  14  63 W14       30.33R WCI  13
$$

CITY           SKY/WX    TMP DP  RH WIND       PRES   REMARKS
BILLINGS       CLOUDY    32  12  43 CALM      30.43F
GREAT FALLS    CLOUDY    30  17  58 SW10      30.42S
$$




USA.gov is the U.S. government's official web portal to all federal, state and local government web resources and services.